Location: Ch�tillon
(48.8024°N, 2.2935°E)
Time: 17:25:54
(UTC+00:00)

CAS-4A - Pass Details

Date: 12 July 2022
Orbit: 521 x 536 km, 43.0° (Epoch: 19 August)

Event Time Altitude Azimuth Distance (km) Brightness Sun altitude
Rises 21:44:57 0° 237° (WSW) 2,638 ? -13.5°
Reaches altitude 10° 21:47:22 10° 225° (SW) 1,751 ? -13.7°
Maximum altitude 21:50:49 28° 165° (SSE) 990 ? -14.0°
Enters shadow 21:51:58 24° 136° (SE) 1,099 ? -14.1°
